Find Starlink 31334

NORAD ID: 59157 Int'l Des: 2024-044 Owner: SPXS Country: US Constellation: starlink operational
LEOCIRCULAR

Current View

Loading 3D Globe...

About Starlink 31334

Starlink 31334 (NORAD 59157) is a starlink constellation satellite (v2 mini) launched Mar 4, 2024 by SPXS of US. It operates in LEO, CIRCULAR orbit with a mass of 730.00 kg.

About Starlink 31334

Description loading...

Upcoming Passes

Passes for default location (London). Set your location on the main map for personalized predictions.

Altitude History

Loading altitude history...

Two-Line Element Set

1 59157U 24044F 26166.04592828 .00001806 00000-0 75147-4 0 9993
2 59157 42.9993 280.7753 0000491 358.4738 1.6112 15.27576029128410
Epoch: Jun 15, 2026 • Age: 19 hours

Current Status

Altitude 484.7 km
Velocity 7.63 km/s
Sub-Earth Point 35.31°N, 163.98°W
Launch Date Mar 4, 2024
Age 2.2 years
Type internet

Technical Details

Classification Payload
Mass 730.00 kg
Dry Mass 700.00 kg
Total Mass 730.00 kg
Length 0.30 m
Diameter 4.10 m
Span 29.00 m
Shape Box + pan
Manufacturer SPXS
Bus Type Starlink V2M
Phase Status In Orbit
Owner/State SPXS/US

Most Searched